Date,TemperatureHighF,TemperatureAvgF,TemperatureLowF,DewpointHighF,DewpointAvgF,DewpointLowF,HumidityHigh,HumidityAvg,HumidityLow,PressureMaxIn,PressureMinIn,WindSpeedMaxMPH,WindSpeedAvgMPH,GustSpeedMaxMPH,PrecipitationSumIn
2013-1-1,17.0,7.3,-2.0,9.0,1.1,-6.0,92,76,52,0.00,40.00,26,11,29,0.00
2013-1-2,24.0,7.3,-5.0,8.0,1.0,-14.0,94,76,50,0.00,40.00,13,5,15,0.00
2013-1-3,22.0,13.9,-3.0,3.0,-6.7,-16.0,66,40,22,0.00,40.00,22,11,25,0.00
2013-1-4,34.0,20.0,9.0,9.0,-5.2,-20.0,53,33,14,0.00,40.00,17,7,17,0.00
2013-1-5,26.0,15.9,6.0,9.0,0.7,-8.0,72,51,29,0.00,40.00,22,6,24,0.00
2013-1-6,29.0,20.5,13.0,11.0,1.5,-6.0,61,43,30,0.00,40.00,24,16,32,0.00
2013-1-7,24.0,16.0,6.0,16.0,6.3,-1.0,93,67,35,0.00,40.00,37,15,42,0.00
2013-1-8,23.0,17.2,9.0,19.0,15.1,8.0,99,91,81,0.00,40.00,34,17,38,0.01
2013-1-9,34.0,22.3,15.0,21.0,15.7,8.0,99,78,34,0.00,40.00,24,14,26,0.00
2013-1-10,32.0,25.4,20.0,21.0,15.7,12.0,96,67,54,0.00,40.00,19,12,26,0.07
2013-1-11,21.0,5.4,-6.0,20.0,2.4,-13.0,99,87,75,0.00,40.00,24,10,29,0.32
2013-1-12,-1.0,-6.7,-11.0,-6.0,-10.8,-15.0,86,82,76,0.00,40.00,13,5,15,0.00
2013-1-13,-2.0,-7.9,-15.0,-8.0,-12.3,-20.0,88,81,72,0.00,40.00,20,6,26,0.00
2013-1-14,-2.0,-9.9,-19.0,-10.0,-15.0,-24.0,87,78,67,0.00,40.00,27,13,30,0.00
2013-1-15,8.0,1.0,-8.0,5.0,-3.4,-13.0,89,81,75,0.00,40.00,32,21,34,0.00
2013-1-16,22.0,11.2,2.0,14.0,6.6,0.0,93,82,65,0.00,40.00,26,13,28,0.00
2013-1-17,32.0,21.4,9.0,11.0,5.4,-2.0,78,51,35,0.00,40.00,22,11,26,0.00
2013-1-18,33.0,25.3,16.0,12.0,5.1,0.0,72,42,30,0.00,40.00,38,19,44,0.00
2013-1-19,32.0,23.0,17.0,12.0,3.7,-2.0,67,43,27,0.00,40.00,24,14,28,0.00
2013-1-20,31.0,22.4,13.0,9.0,4.3,-3.0,73,46,32,0.00,40.00,26,11,32,0.00
2013-1-21,33.0,23.3,13.0,12.0,7.2,-3.0,72,51,21,0.00,40.00,31,20,39,0.00
2013-1-22,34.0,28.6,23.0,13.0,-0.0,-10.0,56,30,16,0.00,40.00,31,20,37,0.00
2013-1-23,35.0,25.3,13.0,12.0,0.5,-8.0,73,37,19,0.00,40.00,22,11,24,0.00
2013-1-24,34.0,28.1,18.0,28.0,19.4,4.0,91,71,39,0.00,40.00,40,25,47,0.01
2013-1-25,29.0,25.5,22.0,21.0,18.2,16.0,79,73,68,0.00,40.00,35,23,40,0.00
2013-1-26,31.0,27.8,24.0,28.0,24.9,16.0,100,89,64,0.00,40.00,24,12,28,0.00
2013-1-27,30.0,26.6,23.0,29.0,25.9,22.0,100,97,87,0.00,40.00,21,11,26,0.07
2013-1-28,23.0,12.1,3.0,22.0,7.2,-7.0,99,81,55,0.00,40.00,25,10,29,0.01
2013-1-29,16.0,6.7,-3.0,7.0,-1.6,-10.0,88,71,31,0.00,40.00,24,12,29,0.00
2013-1-30,25.0,16.2,-2.0,18.0,8.7,-8.0,93,72,50,0.00,40.00,31,21,39,0.02
2013-1-31,26.0,22.4,19.0,18.0,15.7,11.0,87,75,61,0.00,40.00,38,24,43,0.00
2013-2-1,28.0,22.0,14.0,22.0,17.5,8.0,97,83,65,0.00,40.00,32,19,37,0.01
2013-2-2,30.0,20.6,9.0,17.0,9.2,0.0,78,61,47,0.00,40.00,26,18,29,0.00
2013-2-3,36.0,25.5,18.0,16.0,8.9,3.0,62,49,34,0.00,40.00,29,16,32,0.00
2013-2-4,28.0,23.2,12.0,19.0,12.4,3.0,79,64,37,0.00,40.00,37,22,43,0.00
2013-2-5,31.0,24.8,18.0,23.0,16.3,11.0,92,71,46,0.00,40.00,27,16,33,0.00
2013-2-6,28.0,23.3,9.0,16.0,8.7,-2.0,67,53,41,0.00,40.00,24,13,29,0.00
2013-2-7,24.0,15.8,5.0,13.0,1.5,-11.0,89,55,26,0.00,40.00,25,13,27,0.00
2013-2-8,32.0,22.6,13.0,25.0,13.8,-8.0,98,71,33,0.00,40.00,32,10,35,0.22
2013-2-9,20.0,17.4,15.0,17.0,13.1,10.0,93,83,67,0.00,40.00,30,17,38,0.10
2013-2-10,16.0,11.4,5.0,11.0,6.4,1.0,91,80,62,0.00,40.00,30,13,36,0.01
2013-2-11,10.0,4.9,-1.0,5.0,-0.5,-5.0,91,78,61,0.00,40.00,27,15,30,0.00
2013-2-12,18.0,8.1,-1.0,12.0,3.0,-7.0,94,79,66,0.00,40.00,31,16,32,0.00
2013-2-13,25.0,17.1,7.0,19.0,12.5,5.0,97,82,68,0.00,40.00,30,21,35,0.01
2013-2-14,22.0,15.8,5.0,16.0,11.1,-1.0,98,82,49,0.00,40.00,27,10,32,0.00
2013-2-15,25.0,15.0,1.0,14.0,7.5,-5.0,93,72,53,0.00,40.00,22,10,26,0.00
2013-2-16,30.0,23.4,11.0,21.0,13.9,6.0,85,67,51,0.00,40.00,29,17,32,0.00
2013-2-17,26.0,19.6,8.0,15.0,9.7,2.0,96,66,42,0.00,40.00,29,14,34,0.04
2013-2-18,17.0,10.6,-2.0,9.0,3.7,-7.0,98,74,33,0.00,40.00,25,13,29,0.00
2013-2-19,25.0,16.6,7.0,9.0,1.9,-9.0,75,52,35,0.00,40.00,18,9,21,0.00
2013-2-20,29.0,19.6,9.0,15.0,7.0,0.0,72,58,40,0.00,40.00,18,6,23,0.00
2013-2-21,22.0,14.1,4.0,16.0,9.9,1.0,94,83,66,0.00,40.00,16,8,19,0.13
2013-2-22,17.0,10.0,0.0,8.0,3.5,-6.0,95,75,61,0.00,40.00,32,17,38,0.00
2013-2-23,20.0,16.1,11.0,18.0,13.8,7.0,97,91,78,0.00,40.00,30,16,37,0.13
2013-2-24,17.0,13.5,6.0,12.0,8.4,4.0,96,80,60,0.00,40.00,35,18,47,0.04
2013-2-25,19.0,11.8,3.0,12.0,5.1,-4.0,94,74,55,0.00,40.00,29,16,33,0.00
2013-2-26,19.0,11.7,3.0,14.0,5.7,0.0,95,78,56,0.00,40.00,26,8,33,0.22
2013-2-27,18.0,9.6,-3.0,9.0,3.4,-6.0,94,76,55,0.00,40.00,24,12,27,0.00
2013-2-28,24.0,17.4,8.0,17.0,7.1,-3.0,79,64,41,0.00,40.00,31,17,35,0.00
2013-3-1,35.0,22.9,11.0,25.0,16.5,5.0,97,77,61,0.00,40.00,28,12,35,0.00
2013-3-2,38.0,29.8,19.0,29.0,21.8,15.0,91,72,42,0.00,40.00,24,12,29,0.00
2013-3-3,32.0,26.7,17.0,30.0,23.7,16.0,100,89,74,0.00,40.00,34,20,39,0.04
2013-3-4,23.0,12.6,0.0,17.0,6.3,-3.0,97,77,48,0.00,40.00,18,6,22,0.00
2013-3-5,25.0,15.7,8.0,13.0,2.4,-7.0,72,55,41,0.00,40.00,26,14,30,0.00
2013-3-6,37.0,27.2,11.0,29.0,13.6,1.0,99,57,40,0.00,40.00,22,10,27,0.06
2013-3-7,32.0,27.3,20.0,29.0,17.0,5.0,99,66,39,0.00,40.00,19,11,23,0.07
2013-3-8,34.0,30.6,26.0,24.0,21.4,18.0,84,68,58,0.00,40.00,28,8,34,0.00
2013-3-9,27.0,23.9,20.0,22.0,16.8,10.0,90,75,59,0.00,40.00,35,20,42,0.06
2013-3-10,35.0,23.6,9.0,25.0,14.2,5.0,98,69,37,0.00,40.00,27,10,29,0.00
2013-3-11,33.0,26.3,18.0,22.0,14.0,-1.0,91,61,28,0.00,40.00,35,17,44,0.00
2013-3-12,34.0,25.0,11.0,23.0,16.4,9.0,100,71,48,0.00,40.00,32,14,40,0.00
2013-3-13,41.0,34.5,28.0,28.0,24.0,17.0,83,66,40,0.00,40.00,35,22,41,0.00
2013-3-14,47.0,38.7,29.0,28.0,23.1,17.0,73,54,38,0.00,40.00,32,14,37,0.00
2013-3-15,46.0,37.9,26.0,25.0,21.2,15.0,82,52,35,0.00,40.00,31,14,38,0.00
2013-3-16,38.0,32.4,26.0,21.0,15.2,9.0,78,50,33,0.00,40.00,29,13,33,0.00
2013-3-17,30.0,21.5,12.0,26.0,13.1,2.0,100,71,46,0.00,40.00,54,24,65,0.41
2013-3-18,24.0,16.8,9.0,13.0,9.3,5.0,93,73,49,0.00,40.00,37,21,45,0.03
2013-3-19,31.0,21.6,13.0,11.0,1.9,-7.0,70,44,24,0.00,40.00,26,15,33,0.00
2013-3-20,33.0,26.4,18.0,29.0,12.7,-12.0,100,63,19,0.00,40.00,38,17,45,0.15
2013-3-21,30.0,23.6,13.0,29.0,17.0,2.0,100,77,53,0.00,40.00,37,24,44,0.06
2013-3-22,17.0,11.1,3.0,12.0,4.2,-2.0,93,74,59,0.00,40.00,21,12,23,0.22
2013-3-23,11.0,7.9,5.0,9.0,3.7,0.0,90,83,73,0.00,40.00,26,18,31,0.02
2013-3-25,23.0,14.0,-9.0,7.0,-0.7,-15.0,88,53,32,0.00,40.00,21,12,25,0.00
2013-3-26,30.0,23.5,13.0,27.0,14.0,-2.0,92,68,37,0.00,40.00,20,10,22,0.18
2013-3-27,37.0,29.1,15.0,24.0,19.3,12.0,92,67,50,0.00,40.00,23,11,29,0.00
2013-3-28,45.0,34.5,22.0,27.0,20.6,14.0,75,57,39,0.00,40.00,19,8,22,0.00
2013-3-29,43.0,36.5,29.0,30.0,25.7,22.0,82,66,45,0.00,40.00,30,13,36,0.00
2013-3-30,42.0,34.9,27.0,30.0,24.7,-99.9,86,69,42,0.00,40.00,23,9,28,0.00
2013-3-31,50.0,37.6,27.0,24.0,16.9,5.0,80,45,24,0.00,40.00,22,15,26,0.00
2013-4-1,40.0,34.2,27.0,25.0,22.7,20.0,82,63,51,0.00,40.00,23,14,27,0.00
2013-4-2,44.0,35.0,27.0,23.0,18.7,10.0,81,54,27,0.00,40.00,26,14,32,0.00
2013-4-3,50.0,39.5,26.0,24.0,17.0,11.0,73,42,20,0.00,40.00,24,12,27,0.00
2013-4-4,53.0,40.7,29.0,30.0,24.8,21.0,80,55,30,0.00,40.00,30,12,35,0.00
2013-4-5,43.0,37.4,31.0,35.0,26.1,17.0,90,64,37,0.00,40.00,34,20,43,0.07
2013-4-6,41.0,32.9,27.0,32.0,23.9,17.0,98,71,46,0.00,40.00,31,17,36,0.13
2013-4-7,37.0,29.2,23.0,32.0,27.2,23.0,100,93,67,0.00,40.00,29,12,34,0.56
2013-4-8,32.0,21.8,8.0,26.0,17.0,4.0,98,82,59,0.00,40.00,55,28,65,0.42
2013-4-9,13.0,8.5,4.0,6.0,2.9,0.0,86,78,65,0.00,40.00,57,33,66,0.32
2013-4-10,33.0,19.5,6.0,26.0,14.8,3.0,96,82,67,0.00,40.00,21,11,24,0.07
2013-4-11,39.0,31.4,25.0,29.0,25.6,19.0,95,79,53,0.00,40.00,17,7,19,0.01
2013-4-12,42.0,31.5,23.0,26.0,17.2,1.0,95,62,19,0.00,40.00,24,10,31,0.00
2013-4-13,37.0,30.3,20.0,29.0,20.9,10.0,95,68,46,0.00,40.00,37,22,47,0.02
2013-4-14,27.0,19.2,12.0,15.0,6.3,-4.0,94,60,26,0.00,40.00,32,18,40,0.00
2013-4-15,21.0,17.1,14.0,15.0,12.6,9.0,97,83,63,0.00,40.00,28,18,34,0.12
2013-4-16,16.0,11.9,9.0,11.0,7.1,4.0,88,81,61,0.00,40.00,44,29,52,0.11
2013-4-17,17.0,11.5,7.0,9.0,5.2,2.0,86,75,60,0.00,40.00,27,20,34,0.00
2013-4-18,30.0,17.8,6.0,15.0,8.5,0.0,90,69,38,0.00,40.00,24,13,30,0.01
2013-4-19,35.0,27.8,20.0,29.0,18.7,9.0,100,69,53,0.00,40.00,36,18,42,0.00
2013-4-20,43.0,33.4,26.0,29.0,24.0,15.0,100,72,34,0.00,40.00,28,17,35,0.00
2013-4-21,43.0,33.0,23.0,30.0,22.2,14.0,98,68,32,0.00,40.00,35,17,42,0.03
2013-4-22,31.0,17.2,10.0,29.0,14.5,6.0,100,89,77,0.00,40.00,32,20,37,0.30
2013-4-23,29.0,17.1,5.0,17.0,9.1,2.0,95,72,45,0.00,40.00,20,10,24,0.00
2013-4-24,39.0,28.0,11.0,15.0,8.3,4.0,77,46,26,0.00,40.00,24,9,28,0.00
2013-4-25,47.0,37.1,29.0,13.0,6.3,-3.0,39,28,12,0.00,40.00,27,17,34,0.00
2013-4-26,53.0,42.8,30.0,17.0,10.7,4.0,48,28,17,0.00,40.00,21,11,45,0.00
2013-4-27,57.0,45.3,28.0,22.0,16.5,10.0,61,33,15,0.00,40.00,29,14,37,0.00
2013-4-28,56.0,45.2,35.0,27.0,22.1,13.0,68,42,20,0.00,40.00,32,16,41,0.00
2013-4-29,53.0,42.4,32.0,30.0,20.4,11.0,77,43,27,0.00,40.00,43,25,59,0.00
2013-4-30,44.0,34.1,21.0,28.0,11.9,-9.0,88,48,11,0.00,40.00,31,19,39,0.00
2013-5-1,24.0,20.4,17.0,18.0,14.0,10.0,94,77,59,0.00,40.00,29,18,35,0.10
2013-5-2,41.0,28.2,13.0,18.0,13.3,5.0,90,57,33,0.00,40.00,16,9,26,0.00
2013-5-3,52.0,39.4,24.0,20.0,12.3,5.0,60,35,16,0.00,40.00,21,9,23,0.00
2013-5-4,42.0,35.9,32.0,33.0,28.4,20.0,93,75,48,0.00,40.00,30,22,37,0.03
2013-5-5,44.0,37.8,31.0,29.0,24.6,21.0,87,60,45,0.00,40.00,29,20,34,0.00
2013-5-6,53.0,44.7,34.0,27.0,24.1,22.0,62,45,32,0.00,40.00,18,10,25,0.00
2013-5-7,52.0,40.0,29.0,37.0,32.8,26.0,95,76,44,0.00,40.00,19,6,24,0.08
2013-5-8,51.0,44.2,38.0,36.0,31.2,25.0,89,62,40,0.00,40.00,34,17,38,0.02
2013-5-9,56.0,46.2,35.0,32.0,26.5,13.0,80,49,19,0.00,40.00,22,10,27,0.00
2013-5-10,55.0,46.5,35.0,31.0,24.2,-99.9,80,46,22,0.00,40.00,22,11,29,0.00
2013-5-11,60.0,48.4,32.0,32.0,24.0,-99.9,87,44,14,0.00,40.00,29,8,37,0.00
2013-5-12,67.0,56.7,44.0,30.0,25.7,22.0,48,31,19,0.00,40.00,22,10,26,0.00
2013-5-13,71.0,60.6,48.0,32.0,26.5,22.0,47,28,17,0.00,40.00,23,14,34,0.00
2013-5-14,68.0,60.3,53.0,27.0,24.1,19.0,33,25,18,0.00,40.00,29,15,35,0.00
2013-5-15,66.0,53.4,41.0,44.0,29.5,20.0,88,44,21,0.00,40.00,21,7,34,0.11
2013-5-16,59.0,46.5,40.0,43.0,24.6,-99.9,97,66,33,0.00,40.00,33,12,47,0.13
2013-5-17,59.0,46.4,38.0,44.0,33.5,-99.9,97,70,28,0.00,40.00,32,13,37,0.00
2013-5-18,51.0,43.5,38.0,37.0,33.2,29.0,95,68,43,0.00,40.00,28,16,35,0.00
2013-5-19,44.0,37.7,33.0,37.0,33.8,31.0,95,86,64,0.00,40.00,19,6,21,0.06
2013-5-20,47.0,38.5,34.0,37.0,33.8,32.0,99,84,58,0.00,40.00,27,13,35,0.09
2013-5-21,54.0,42.7,35.0,37.0,32.7,22.0,99,71,28,0.00,40.00,17,9,23,0.00
2013-5-22,64.0,49.4,32.0,40.0,30.2,14.0,93,54,14,0.00,40.00,22,9,29,0.00
2013-5-23,67.0,53.5,42.0,36.0,25.6,11.0,73,42,13,0.00,40.00,35,15,44,0.00
2013-5-24,57.0,47.8,38.0,27.0,9.9,0.0,61,24,11,0.00,40.00,30,20,37,0.00
2013-5-25,65.0,53.4,39.0,18.0,11.5,0.0,37,19,12,0.00,40.00,31,13,40,0.00
2013-5-26,65.0,54.2,36.0,28.0,18.3,9.0,59,27,12,0.00,40.00,26,10,32,0.00
2013-5-27,58.0,50.7,43.0,28.0,19.0,11.0,49,29,16,0.00,40.00,37,16,46,0.00
2013-5-28,51.0,42.9,38.0,40.0,33.7,20.0,98,72,41,0.00,40.00,37,13,45,0.11
2013-5-29,47.0,40.5,35.0,38.0,34.3,29.0,98,79,55,0.00,40.00,29,15,34,0.00
2013-5-30,47.0,39.6,33.0,33.0,27.6,19.0,90,64,34,0.00,40.00,34,23,45,0.00
2013-5-31,52.0,41.0,30.0,31.0,24.9,19.0,86,56,31,0.00,40.00,29,15,34,0.00
2013-6-1,58.0,41.2,26.0,32.0,27.1,13.0,99,64,18,0.00,40.00,14,6,24,0.00
2013-6-5,64.0,55.1,32.0,32.0,26.0,17.0,58,34,17,0.00,40.00,16,10,22,0.00
2013-6-6,66.0,53.9,37.0,37.0,28.2,22.0,66,39,22,0.00,40.00,16,6,21,0.00
2013-6-7,71.0,57.4,41.0,36.0,32.3,25.0,73,42,21,0.00,40.00,27,12,33,0.00
2013-6-8,69.0,58.3,47.0,40.0,30.6,18.0,73,39,14,0.00,40.00,26,14,34,0.00
2013-6-9,77.0,62.5,45.0,33.0,28.4,22.0,54,30,14,0.00,40.00,30,15,36,0.00
2013-6-10,80.0,66.8,48.0,34.0,26.9,18.0,50,24,10,0.00,40.00,34,15,45,0.00
2013-6-11,69.0,60.4,42.0,31.0,21.5,13.0,44,23,14,0.00,40.00,30,15,39,0.00
2013-6-12,73.0,60.8,41.0,36.0,24.0,13.0,65,29,10,0.00,40.00,29,11,39,0.00
2013-6-13,75.0,63.8,50.0,37.0,22.0,8.0,41,21,9,0.00,40.00,32,17,42,0.00
2013-6-14,61.0,51.0,38.0,33.0,14.5,-1.0,59,27,9,0.00,40.00,32,18,40,0.00
2013-6-15,67.0,54.0,36.0,26.0,11.3,2.0,49,20,8,0.00,40.00,24,12,30,0.00
2013-6-16,73.0,60.3,38.0,26.0,13.3,7.0,35,17,8,0.00,40.00,24,9,32,0.00
2013-6-17,73.0,60.6,49.0,39.0,29.0,14.0,63,35,11,0.00,40.00,25,12,31,0.00
2013-6-18,74.0,61.3,50.0,39.0,28.0,16.0,61,31,11,0.00,40.00,23,11,29,0.00
2013-6-19,73.0,59.6,41.0,35.0,20.3,6.0,69,27,8,0.00,40.00,39,17,49,0.00
2013-6-20,59.0,46.0,35.0,16.0,10.4,5.0,33,24,14,0.00,40.00,27,19,32,0.00
2013-6-22,63.0,54.4,44.0,39.0,22.9,9.0,63,33,12,0.00,40.00,34,15,42,0.00
2013-6-23,69.0,54.3,34.0,31.0,20.2,14.0,57,29,14,0.00,40.00,28,12,34,0.00
2013-6-24,71.0,60.2,48.0,34.0,22.1,17.0,46,25,13,0.00,40.00,26,14,34,0.00
2013-6-25,66.0,55.1,44.0,43.0,36.5,31.0,94,54,27,0.00,40.00,28,20,36,0.03
2013-6-26,75.0,64.0,45.0,38.0,34.0,30.0,66,35,21,0.00,40.00,26,14,34,0.00
2013-6-27,81.0,69.2,57.0,37.0,32.6,25.0,46,28,14,0.00,40.00,21,13,26,0.00
2013-6-28,82.0,71.1,58.0,42.0,36.2,20.0,43,29,10,0.00,40.00,21,14,26,0.00
2013-6-29,76.0,64.4,55.0,48.0,42.1,34.0,65,45,27,0.00,40.00,22,11,44,0.00
2013-6-30,75.0,63.8,51.0,45.0,39.9,34.0,64,43,26,0.00,40.00,26,11,32,0.27
2013-7-1,74.0,64.4,52.0,45.0,40.9,38.0,66,43,33,0.00,40.00,24,13,31,0.00
2013-7-2,76.0,65.1,50.0,43.0,37.1,28.0,66,39,17,0.00,40.00,21,11,26,0.00
2013-7-3,76.0,68.3,56.0,44.0,35.9,27.0,48,31,19,0.00,40.00,21,9,22,0.00
2013-7-4,76.0,63.2,54.0,51.0,44.3,37.0,84,53,27,0.00,40.00,18,8,22,0.00
2013-7-5,72.0,61.1,52.0,50.0,44.4,36.0,80,58,28,0.00,40.00,17,10,25,0.00
2013-7-6,73.0,59.9,49.0,48.0,38.6,29.0,80,48,19,0.00,40.00,23,12,27,0.01
2013-7-7,75.0,61.3,49.0,48.0,40.1,28.0,84,51,18,0.00,40.00,26,11,32,0.00
2013-7-8,74.0,58.7,50.0,44.0,39.1,30.0,67,51,20,0.00,40.00,21,8,26,0.00
2013-7-9,78.0,66.4,49.0,40.0,30.0,23.0,65,30,14,0.00,40.00,22,8,26,0.00
2013-7-10,80.0,67.7,49.0,35.0,23.0,-99.9,57,22,12,0.00,40.00,15,7,22,0.00
2013-7-11,80.0,70.1,56.0,41.0,28.6,18.0,49,23,10,0.00,40.00,26,12,35,0.00
2013-7-12,67.0,61.2,54.0,48.0,40.5,35.0,80,48,34,0.00,40.00,21,12,28,0.00
2013-7-13,72.0,63.2,52.0,41.0,37.2,33.0,59,40,25,0.00,40.00,16,10,19,0.00
2013-7-15,78.0,72.0,58.0,51.0,37.6,29.0,70,33,17,0.00,40.00,13,6,16,0.00
2013-7-16,79.0,67.6,55.0,47.0,42.4,36.0,59,42,24,0.00,40.00,32,14,40,0.00
2013-7-17,79.0,65.5,56.0,49.0,43.7,37.0,71,48,22,0.00,40.00,25,12,30,0.00
2013-7-18,79.0,67.2,56.0,50.0,40.3,25.0,78,43,15,0.00,40.00,21,11,30,0.00
2013-7-19,80.0,68.9,61.0,46.0,37.3,20.0,58,36,11,0.00,40.00,22,15,29,0.00
2013-7-20,81.0,69.9,62.0,34.0,23.2,-99.9,35,19,8,0.00,40.00,24,13,28,0.00
2013-7-21,80.0,68.9,50.0,35.0,20.5,9.0,41,19,7,0.00,40.00,26,14,32,0.00
2013-7-22,81.0,67.9,54.0,40.0,21.6,5.0,54,22,6,0.00,40.00,25,12,31,0.00
2013-7-23,78.0,69.3,56.0,25.0,20.1,11.0,27,16,10,0.00,40.00,21,10,25,0.00
2013-7-24,75.0,66.3,57.0,47.0,37.4,23.0,69,36,20,0.00,40.00,21,13,24,0.02
2013-7-25,70.0,58.4,52.0,48.0,42.1,38.0,77,56,34,0.00,40.00,19,9,22,0.01
2013-7-26,77.0,64.2,44.0,46.0,35.9,26.0,85,40,15,0.00,40.00,21,10,25,0.00
2013-7-27,70.0,59.6,52.0,48.0,39.8,30.0,84,52,22,0.00,40.00,22,10,28,0.00
2013-7-28,73.0,58.5,48.0,49.0,41.2,26.0,97,62,17,0.00,40.00,25,12,29,0.00
2013-7-29,69.0,55.9,44.0,44.0,36.1,29.0,77,50,24,0.00,40.00,24,8,30,0.00
2013-7-30,71.0,58.6,45.0,43.0,38.2,30.0,76,50,23,0.00,40.00,29,8,37,0.00
2013-7-31,77.0,63.8,49.0,40.0,35.2,29.0,66,37,18,0.00,40.00,24,8,30,0.00
2013-8-1,79.0,63.1,52.0,47.0,37.9,28.0,73,43,16,0.00,40.00,22,11,28,0.00
2013-8-2,73.0,60.4,47.0,48.0,33.5,16.0,85,47,11,0.00,40.00,24,11,32,0.00
2013-8-3,78.0,67.1,51.0,31.0,19.4,16.0,27,17,10,0.00,40.00,23,11,29,0.00
2013-8-4,79.0,66.9,55.0,22.0,17.3,13.0,21,15,10,0.00,40.00,24,12,32,0.00
2013-8-5,77.0,66.0,56.0,45.0,25.2,13.0,56,25,8,0.00,40.00,20,12,26,0.00
2013-8-6,76.0,67.3,56.0,35.0,25.2,15.0,39,22,10,0.00,40.00,26,15,33,0.00
2013-8-7,78.0,67.7,55.0,39.0,27.4,13.0,55,25,9,0.00,40.00,21,13,28,0.00
2013-8-8,70.0,61.2,54.0,41.0,36.2,23.0,56,41,18,0.00,40.00,24,12,30,0.27
2013-8-9,68.0,57.1,47.0,45.0,38.8,29.0,81,52,24,0.00,40.00,27,8,30,0.10
2013-8-10,72.0,59.6,47.0,43.0,34.6,22.0,84,44,16,0.00,40.00,26,9,32,0.00
2013-8-11,73.0,60.4,48.0,38.0,32.1,22.0,58,37,15,0.00,40.00,18,9,25,0.00